Location: Arthez
(43.0833°N, 0.2500°W)
Time: 01:10:11
(UTC+00:00)

YAOGAN 1 - Pass Details

Date: 23 October 2021
Orbit: 618 x 620 km, 97.9° (Epoch: 06 December)

Event Time Altitude Azimuth Distance (km) Brightness Sun altitude
Rises 18:25:03 0° 153° (SSE) 2,883 5.7 -15.2°
Reaches altitude 10° 18:27:16 10° 149° (SSE) 1,982 4.9 -15.6°
Maximum altitude 18:31:27 53° 73° (ENE) 770 2.6 -16.3°
Drops below altitude 10° 18:35:41 10° 357° (N) 1,997 5.2 -17.1°
Sets 18:37:55 0° 353° (N) 2,908 6.1 -17.5°
